Terug naar catalogus

BRO-17

ActiefWetenschapSSO
NORAD 66672·PAYLOAD·🇫🇷 France

Gelanceerd Nov 28, 2025 vanaf Vandenberg Space Force Base

Loading…

Volgende Passages (komende 24 uur)

TLE

VersSource: Space-Track

Epoch: Sep 13, 2026, 18:18 UTC

1 66672U 25276G   26256.76289230  .00001981  00000-0  99427-4 0  9991
2 66672  97.4121 328.1404 0008017  60.6071 299.5963 15.18445071 43838

Volg BRO-17 in realtime met AllMySat

Download on the App Store